Wind_Speed
37 38 39 40 39 40 41 42 42 42 42 43 44 45 46 46 47 47 48 49 49 50 50 49 48 48 48 48 49 49 46 43 42 40 38 37 35 35
36 37 37 38 39 39 40 41 41 42 43 44 44 45 47 47 48 48 48 49 50 51 51 50 49 47 48 48 47 47 44 42 41 39 37 36 34 34
34 35 36 37 38 38 39 39 41 43 44 43 45 46 46 47 48 48 49 49 50 51 50 49 48 48 47 47 47 45 43 41 39 38 36 35 35 35
34 34 35 36 37 38 39 40 42 44 44 43 44 45 46 47 48 48 48 47 49 49 48 48 46 46 46 45 44 42 40 39 37 35 35 35 34 34
33 34 34 35 37 38 39 41 42 43 44 44 44 45 46 48 47 47 47 48 47 46 46 46 46 44 44 40 39 37 37 36 34 34 33 33 34 34
33 33 34 35 37 39 41 42 42 43 43 44 44 45 45 46 46 45 45 45 45 45 45 44 44 41 39 37 35 35 34 33 33 33 33 33 33 33
31 32 33 35 37 39 40 42 42 43 43 44 44 44 44 43 44 44 43 42 43 43 43 42 41 39 36 34 33 32 32 32 34 34 33 32 31 31
30 31 32 34 35 37 39 40 41 42 42 43 43 44 43 42 42 42 42 42 41 41 41 40 38 36 34 32 33 33 32 32 32 33 32 30 31 31
28 29 31 32 34 35 36 38 39 40 41 42 43 42 42 41 41 41 41 41 40 38 38 37 36 33 31 31 30 29 29 29 29 30 30 29 29 29
29 30 32 33 35 36 37 37 37 38 39 39 39 40 41 41 40 39 38 37 37 37 37 36 34 32 30 28 28 27 26 26 27 28 29 29 29 29
30 31 33 34 35 36 37 37 37 38 38 38 37 37 37 37 37 36 36 36 36 35 34 33 31 30 28 26 26 26 26 27 26 27 28 28 29 28
31 32 34 35 36 37 37 37 37 37 38 37 38 38 37 37 37 36 36 36 36 34 32 32 30 29 27 26 26 26 26 25 26 27 27 27 28 29
31 33 34 35 36 37 37 37 38 37 37 37 37 37 37 36 36 35 35 35 34 33 32 30 29 27 26 25 25 24 24 25 25 26 26 28 28 29
33 34 35 36 37 37 36 37 38 37 37 37 37 37 36 35 34 34 35 34 33 31 30 29 28 27 26 24 23 23 24 24 25 25 26 27 28 28
34 35 36 37 37 37 37 37 38 37 37 37 36 36 35 35 34 34 34 32 31 30 29 27 27 26 25 24 24 24 24 24 25 26 27 27 28 28
35 36 37 37 37 37 37 37 36 36 35 35 36 36 35 35 34 33 32 30 29 28 28 25 25 25 24 24 24 24 24 24 26 27 27 28 27 28
36 36 37 37 38 38 37 36 35 35 35 35 35 36 35 34 33 32 30 29 28 27 26 25 23 23 23 23 24 24 23 24 26 27 28 29 29 28
37 37 37 37 37 37 36 35 35 35 35 35 35 35 34 33 32 31 30 29 28 26 25 25 23 23 23 23 24 24 23 24 26 28 29 29 30 30
38 38 37 37 37 36 36 35 35 35 35 35 34 34 33 31 30 29 28 27 26 25 24 24 23 23 23 23 24 24 24 25 26 27 28 29 30 30
38 38 38 38 37 36 36 35 35 35 35 35 34 33 32 30 29 28 27 26 25 24 24 24 23 23 23 22 23 24 25 25 26 26 27 28 30 31
38 38 38 38 38 37 36 35 35 35 35 35 34 33 31 30 28 27 27 26 25 25 24 23 23 23 23 24 23 24 25 26 27 27 27 28 30 31
39 38 38 38 38 37 36 35 35 35 35 35 33 32 31 30 29 27 26 26 25 25 24 24 23 23 23 23 23 23 24 26 27 28 28 29 30 31
39 39 39 39 38 37 37 37 37 36 35 34 33 32 31 30 29 28 27 26 26 25 24 24 23 23 23 23 23 23 24 26 27 27 28 29 30 30
Wind_Direction
268 270 270 270 271 273 274 275 277 278 278 278 279 281 282 284 285 287 287 288 289 290 290 290 290 289 287 285 283 282 280 277 272 269 264 259 258 255
268 269 270 271 272 274 276 277 278 280 281 280 280 282 284 284 285 287 288 288 289 291 290 289 288 288 286 285 284 281 278 275 270 265 259 256 255 254
269 271 273 274 273 276 278 279 281 282 284 282 280 282 284 285 287 288 289 289 290 291 291 289 289 287 286 285 283 280 277 273 267 260 256 252 252 253
272 273 274 275 276 278 280 281 283 283 284 284 283 284 285 286 288 289 289 290 291 291 290 290 290 288 286 285 282 279 274 269 264 259 252 249 251 252
275 276 276 277 278 280 282 284 285 285 285 286 286 287 287 287 288 288 289 289 291 291 291 290 289 288 287 283 280 278 273 267 261 256 251 250 249 248
279 278 278 280 281 283 283 284 285 285 285 287 288 288 289 289 289 289 289 289 291 292 291 291 291 290 286 281 279 276 272 265 259 255 251 248 246 246
280 281 282 282 284 285 285 284 285 286 287 288 289 289 289 290 291 290 290 292 292 292 293 292 291 290 286 280 278 274 271 265 259 254 249 244 242 244
285 285 285 285 287 288 288 287 287 288 289 290 289 290 290 291 292 292 291 292 292 293 294 294 291 287 284 280 276 272 269 263 257 250 243 241 240 240
289 289 290 291 293 292 291 291 292 291 291 292 291 292 291 292 292 292 292 292 292 293 293 292 290 286 283 281 277 272 268 262 253 245 240 239 238 235
291 292 293 294 294 295 295 295 296 296 295 295 294 294 293 292 293 292 291 293 294 294 292 290 288 285 282 278 272 266 262 257 251 245 240 236 233 232
293 294 296 296 297 297 297 297 297 297 296 296 295 295 295 294 294 293 292 292 293 293 291 289 286 284 278 272 267 265 261 256 250 244 238 234 230 228
297 298 298 297 297 297 297 297 298 296 295 295 295 295 295 294 294 294 293 292 291 290 290 288 285 282 276 270 264 263 260 254 247 241 236 232 229 227
300 300 300 299 298 298 297 297 298 297 295 295 296 295 295 295 294 294 294 293 292 290 289 286 282 279 277 270 261 258 255 249 244 239 236 232 227 226
300 301 302 301 300 298 297 298 298 297 296 296 296 296 295 295 295 295 296 294 291 290 287 284 281 277 274 268 260 251 251 247 240 236 232 231 226 225
299 301 301 302 301 300 298 298 299 298 297 297 298 297 297 296 296 295 295 293 290 287 285 283 279 273 270 266 258 251 249 243 237 234 231 230 228 225
299 300 301 301 301 301 299 299 300 300 300 299 299 298 298 297 296 294 294 293 290 286 282 280 278 271 268 263 256 251 248 242 238 234 230 227 226 227
299 300 301 301 301 301 300 300 300 300 301 301 301 300 300 297 296 294 292 289 288 284 278 275 274 270 266 258 251 248 245 241 238 234 229 228 227 227
299 300 301 301 301 301 300 300 299 300 301 302 302 302 301 299 296 293 290 287 285 282 277 272 270 267 263 258 251 245 243 240 237 233 228 227 225 225
297 299 300 301 300 301 301 300 300 300 301 303 304 303 302 300 298 294 291 288 284 279 275 271 268 265 261 257 251 245 242 239 237 233 229 226 224 223
297 299 300 301 300 300 299 299 299 299 300 301 302 302 301 300 297 293 290 288 283 278 274 269 266 264 258 255 250 245 241 238 235 232 229 226 224 222
296 297 299 300 300 299 298 298 298 299 300 301 301 300 299 297 296 292 288 286 282 277 273 269 265 263 258 252 249 245 242 239 235 232 230 227 225 224
295 296 297 298 299 298 297 296 297 298 299 300 299 299 298 295 294 292 288 285 281 276 272 268 265 261 254 250 247 244 240 237 235 234 231 229 226 225
294 295 296 297 297 298 296 296 296 297 297 297 297 297 297 296 294 291 286 282 279 274 271 267 263 258 253 249 248 244 240 235 234 232 231 229 226 225
Height
5702 5702 5701 5701 5700 5699 5697 5696 5694 5693 5693 5692 5689 5686 5682 5679 5675 5671 5668 5664 5660 5656 5651 5647 5642 5638 5634 5631 5627 5625 5623 5621 5621 5621 5622 5624 5626 5629
5692 5692 5691 5691 5690 5688 5686 5685 5682 5681 5680 5680 5677 5673 5669 5666 5662 5658 5654 5650 5646 5642 5637 5633 5628 5624 5620 5617 5613 5611 5609 5609 5608 5609 5611 5614 5617 5619
5683 5682 5682 5681 5680 5678 5676 5674 5672 5669 5668 5667 5664 5661 5656 5653 5649 5644 5640 5636 5632 5627 5623 5618 5614 5610 5606 5602 5599 5597 5596 5596 5596 5598 5600 5603 5607 5609
5674 5673 5672 5671 5669 5668 5666 5663 5661 5658 5656 5654 5651 5648 5644 5640 5635 5631 5626 5622 5618 5613 5609 5604 5600 5595 5592 5589 5586 5584 5583 5584 5584 5586 5589 5593 5596 5599
5664 5663 5662 5661 5659 5657 5655 5652 5649 5646 5643 5641 5638 5635 5631 5626 5621 5617 5613 5608 5604 5599 5594 5590 5586 5582 5578 5575 5574 5572 5572 5573 5574 5576 5579 5583 5586 5590
5655 5653 5652 5650 5648 5646 5643 5641 5638 5634 5631 5628 5625 5622 5618 5613 5608 5605 5600 5596 5591 5586 5581 5577 5573 5569 5566 5564 5563 5562 5562 5562 5564 5566 5569 5573 5577 5580
5645 5643 5641 5639 5637 5634 5632 5629 5626 5622 5619 5616 5613 5609 5605 5601 5596 5593 5588 5584 5579 5574 5570 5566 5561 5558 5555 5553 5552 5552 5552 5552 5554 5557 5559 5563 5567 5571
5635 5633 5631 5629 5626 5623 5620 5617 5614 5611 5607 5604 5600 5597 5593 5589 5584 5580 5576 5573 5570 5566 5560 5556 5551 5548 5546 5544 5543 5542 5542 5542 5544 5547 5550 5554 5558 5562
5627 5624 5622 5619 5616 5613 5609 5606 5602 5598 5595 5592 5588 5585 5581 5577 5573 5569 5565 5561 5558 5554 5549 5546 5542 5539 5537 5534 5533 5532 5533 5533 5535 5538 5541 5545 5549 5554
5618 5616 5613 5610 5606 5603 5599 5596 5592 5588 5584 5579 5576 5573 5569 5565 5561 5558 5554 5550 5547 5543 5539 5536 5533 5530 5528 5526 5525 5524 5525 5526 5527 5529 5533 5537 5541 5546
5609 5606 5603 5600 5597 5593 5590 5586 5582 5578 5573 5569 5565 5562 5557 5554 5550 5546 5543 5540 5537 5534 5529 5526 5524 5522 5520 5519 5518 5517 5518 5518 5520 5522 5525 5529 5534 5539
5600 5597 5594 5590 5587 5583 5579 5576 5572 5568 5564 5559 5556 5552 5548 5544 5540 5536 5533 5529 5526 5524 5521 5518 5516 5513 5513 5512 5511 5511 5511 5511 5513 5516 5519 5523 5528 5533
5591 5588 5584 5581 5577 5573 5569 5566 5562 5558 5554 5550 5546 5542 5538 5534 5530 5527 5523 5519 5516 5514 5512 5509 5507 5505 5504 5505 5505 5504 5505 5506 5507 5510 5513 5517 5522 5527
5582 5579 5575 5571 5567 5563 5559 5556 5552 5548 5544 5540 5536 5532 5528 5524 5521 5517 5513 5509 5506 5504 5502 5500 5499 5498 5497 5497 5498 5499 5500 5500 5502 5505 5508 5512 5516 5521
5573 5570 5566 5562 5558 5553 5550 5546 5542 5538 5534 5530 5526 5522 5518 5515 5511 5507 5503 5500 5497 5495 5493 5492 5491 5491 5490 5490 5491 5492 5493 5495 5497 5500 5503 5507 5511 5516
5564 5560 5556 5552 5548 5544 5540 5536 5531 5528 5524 5520 5516 5512 5508 5504 5500 5497 5494 5491 5488 5486 5485 5484 5483 5483 5484 5484 5485 5486 5487 5489 5491 5494 5498 5502 5506 5510
5554 5550 5546 5542 5538 5534 5530 5526 5522 5518 5514 5510 5506 5502 5498 5494 5490 5487 5484 5482 5480 5478 5477 5477 5476 5476 5476 5477 5478 5479 5481 5483 5486 5489 5492 5497 5501 5505
5544 5540 5536 5532 5528 5524 5520 5516 5512 5509 5505 5501 5497 5493 5489 5485 5481 5478 5475 5473 5471 5470 5469 5469 5469 5469 5469 5470 5472 5473 5475 5477 5480 5483 5487 5491 5495 5499
5534 5530 5526 5522 5518 5514 5510 5507 5503 5499 5495 5492 5488 5484 5479 5475 5472 5469 5466 5464 5463 5462 5462 5462 5462 5462 5463 5464 5465 5467 5469 5471 5474 5477 5481 5485 5489 5494
5523 5519 5515 5512 5508 5504 5500 5497 5493 5490 5486 5482 5479 5475 5471 5467 5463 5461 5459 5457 5456 5455 5454 5454 5455 5455 5456 5458 5459 5460 5462 5464 5467 5470 5474 5478 5482 5486
5512 5508 5505 5501 5497 5493 5490 5487 5483 5480 5476 5473 5469 5465 5462 5459 5456 5453 5451 5449 5448 5447 5447 5447 5447 5448 5449 5450 5451 5453 5455 5457 5460 5463 5467 5471 5474 5479
5500 5497 5494 5490 5486 5483 5479 5476 5473 5470 5466 5463 5459 5456 5453 5450 5447 5445 5443 5441 5440 5440 5439 5439 5439 5440 5441 5442 5444 5446 5448 5450 5452 5455 5459 5463 5467 5472
5489 5486 5482 5479 5475 5471 5468 5465 5462 5459 5456 5452 5449 5446 5443 5440 5438 5436 5434 5433 5432 5431 5431 5431 5432 5432 5434 5435 5437 5438 5440 5443 5445 5449 5452 5456 5460 5464